Aérodrome :
LOGIN :

S'inscrire | Disclaimer

   EN    FR    IT 

 










Légende :    VFR   VFR Marginal   IFR   IFR Intensif   IFR Très Intensif
Visi : 
Plafond : 
>= 8 km
>= 3000ft
5 à 8 km
1000 à 3000 ft
1500m à 5 km
500 à 1000 ft
800 à 1500m
200 à 500 ft
< 800m
< 200 ft
Symboles :   Orages  Brouillard  Fortes neiges  Fortes précipitations  Vent > 20 kt
SIGMETs :   Divers  Orages  Givrage  Turbulence  Onde Orograph.  Cendres Volcan.







- Altitude de l'aérodrome : 650 ft
- Code IATA : ZJI


LSZL - Locarno

DERNIER METAR :
  • 241750Z AUTO 30003KT 9999NDV BKN120 22/13 Q1011 RMK

METARs EXPIRÉS :
  • 241720Z AUTO 21005KT 9999NDV SCT140 21/13 Q1011 RMK
  • 241650Z AUTO 24004KT 170V260 9999NDV FEW140 23/13 Q1011 RMK
  • 241620Z AUTO 23004KT 190V250 9999NDV SCT110 23/13 Q1011 RMK
  • 241550Z AUTO 22004KT 170V290 9999NDV SCT120 23/14 Q1011 RMK

TAF TAF LSZL
Valide du 24 à 18h jusqu'au 25 à 03h UTC


241725Z 2418/2503 32004KT 9999 SCT110
TEMPO 2418/2421 SHRA FEW050TCU
PROB30
TEMPO 2418/2420 TSRA FEW050CB
TEMPO 2421/2502 CAVOK
PROB30
TEMPO 2501/2503 SHRA FEW050TCU
Pas de NOTAMs connus pour ce terrain.



MET'MAP, la Météo Aéronautique d'un coup d'oeil ! - Copyright ORBIFLY Décembre 2007 - Disclaimer

ORBIFLY MET'MAP TEAM :

Programmation & Développement : Alexandra Zaïnal
Conception & Développement : Baudouin d'Aumeries
Co-Programmation & Développement : Marc-Olivier Méhu
Soutien technique & logistique : Manuel Goepfert

Contact : metmap@orbifly.com




SOURCES & CREDITS :

   NOAA